When you browse on this site, cookies collect data to enhance your experience and personalize the content and advertising you see.
Visit our Privacy Policy to learn more. By continuing to use the site, you agree to this use of cookies and data.

Météo par heure à Newport

Ce jour, 16 Juillet, Jeudi

Heure Température Précipitation Vent Pression Humidité
00:00 +13°C° 0 mm 3 m/s 763 mmHg 95%
01:00 +13°C° 0 mm 3 m/s 763 mmHg 95%
02:00 +13°C° 0 mm 3 m/s 763 mmHg 96%
03:00 +13°C° 0 mm 3 m/s 763 mmHg 96%
04:00 +13°C° 0 mm 3 m/s 763 mmHg 96%
05:00 +14°C° 0 mm 3 m/s 763 mmHg 95%
06:00 +14°C° 0 mm 4 m/s 763 mmHg 95%
07:00 +16°C° 0 mm 3 m/s 764 mmHg 92%
08:00 +17°C° 0 mm 3 m/s 764 mmHg 90%
09:00 +18°C° 0 mm 3 m/s 765 mmHg 87%
10:00 +19°C° 0 mm 4 m/s 765 mmHg 85%
11:00 +19°C° 0 mm 4 m/s 765 mmHg 83%
12:00 +20°C° 0 mm 4 m/s 765 mmHg 81%
13:00 +20°C° 0 mm 4 m/s 764 mmHg 82%
14:00 +20°C° 0 mm 5 m/s 764 mmHg 82%
15:00 +21°C° 0 mm 5 m/s 764 mmHg 82%
16:00 +20°C° 0 mm 5 m/s 764 mmHg 84%
17:00 +20°C° 0 mm 4 m/s 764 mmHg 85%
18:00 +20°C° 0 mm 4 m/s 764 mmHg 86%
19:00 +19°C° 0 mm 4 m/s 764 mmHg 89%
20:00 +17°C° 0 mm 3 m/s 765 mmHg 92%
21:00 +16°C° 0 mm 2 m/s 765 mmHg 95%
22:00 +16°C° 0 mm 2 m/s 765 mmHg 96%
23:00 +15°C° 0 mm 2 m/s 765 mmHg 96%

Demain, 17 Juillet, Vendredi

Heure Température Précipitation Vent Pression Humidité
00:00 +15°C° 0 mm 2 m/s 765 mmHg 97%
01:00 +15°C° 0 mm 2 m/s 765 mmHg 97%
02:00 +15°C° 0 mm 2 m/s 764 mmHg 98%
03:00 +15°C° 0 mm 2 m/s 764 mmHg 98%
04:00 +14°C° 0 mm 3 m/s 764 mmHg 97%
05:00 +16°C° 0 mm 3 m/s 764 mmHg 97%
06:00 +16°C° 0 mm 3 m/s 764 mmHg 96%
07:00 +16°C° 0 mm 3 m/s 764 mmHg 95%
08:00 +17°C° 0 mm 3 m/s 764 mmHg 94%
09:00 +17°C° 0 mm 3 m/s 764 mmHg 93%
10:00 +18°C° 0 mm 4 m/s 764 mmHg 90%
11:00 +18°C° 0 mm 4 m/s 764 mmHg 88%
12:00 +19°C° 0 mm 5 m/s 764 mmHg 85%
13:00 +19°C° 0 mm 5 m/s 764 mmHg 85%
14:00 +19°C° 0 mm 6 m/s 764 mmHg 85%
15:00 +19°C° 0 mm 6 m/s 763 mmHg 85%
16:00 +19°C° 0 mm 6 m/s 763 mmHg 86%
17:00 +17°C° 0 mm 6 m/s 763 mmHg 87%
18:00 +17°C° 0 mm 5 m/s 763 mmHg 88%
19:00 +16°C° 0 mm 5 m/s 763 mmHg 91%
20:00 +15°C° 0 mm 4 m/s 763 mmHg 94%
21:00 +15°C° 0 mm 4 m/s 763 mmHg 97%
22:00 +15°C° 0 mm 4 m/s 763 mmHg 97%
23:00 +15°C° 0 mm 4 m/s 763 mmHg 97%

Après-demain, 18 Juillet, Samedi

Heure Température Précipitation Vent Pression Humidité
00:00 +15°C° 0 mm 4 m/s 762 mmHg 97%
01:00 +15°C° 0 mm 4 m/s 762 mmHg 97%
02:00 +15°C° 0 mm 5 m/s 762 mmHg 97%
03:00 +15°C° 0 mm 5 m/s 762 mmHg 97%
04:00 +15°C° 0.1 mm 5 m/s 761 mmHg 97%
05:00 +15°C° 0.1 mm 5 m/s 761 mmHg 97%
06:00 +16°C° 0.1 mm 6 m/s 761 mmHg 97%
07:00 +16°C° 0.4 mm 5 m/s 761 mmHg 97%
08:00 +16°C° 0.4 mm 5 m/s 761 mmHg 97%
09:00 +16°C° 0.4 mm 5 m/s 761 mmHg 97%
10:00 +17°C° 0.1 mm 4 m/s 761 mmHg 95%
11:00 +17°C° 0.1 mm 3 m/s 761 mmHg 93%
12:00 +18°C° 0.1 mm 3 m/s 762 mmHg 91%
13:00 +18°C° 0 mm 3 m/s 761 mmHg 89%
14:00 +19°C° 0 mm 3 m/s 761 mmHg 86%
15:00 +19°C° 0 mm 3 m/s 761 mmHg 83%
16:00 +18°C° 0.4 mm 3 m/s 761 mmHg 87%
17:00 +17°C° 0.4 mm 3 m/s 761 mmHg 91%
18:00 +16°C° 0.4 mm 3 m/s 760 mmHg 95%
19:00 +14°C° 0.2 mm 3 m/s 761 mmHg 95%
20:00 +15°C° 0.2 mm 2 m/s 761 mmHg 94%
21:00 +14°C° 0.2 mm 2 m/s 761 mmHg 93%
22:00 +13°C° 0 mm 3 m/s 761 mmHg 93%
23:00 +12°C° 0 mm 3 m/s 761 mmHg 92%

19 Juillet, Dimanche

Heure Température Précipitation Vent Pression Humidité
00:00 +11°C° 0 mm 3 m/s 761 mmHg 91%
01:00 +11°C° 0.1 mm 3 m/s 761 mmHg 91%
02:00 +10°C° 0.1 mm 2 m/s 761 mmHg 92%
03:00 +10°C° 0.1 mm 2 m/s 761 mmHg 92%
04:00 +10°C° 0 mm 2 m/s 761 mmHg 92%
05:00 +10°C° 0 mm 2 m/s 761 mmHg 92%
06:00 +12°C° 0 mm 2 m/s 761 mmHg 92%
07:00 +13°C° 0 mm 2 m/s 761 mmHg 86%
08:00 +15°C° 0 mm 2 m/s 762 mmHg 80%
09:00 +17°C° 0 mm 3 m/s 762 mmHg 74%
10:00 +17°C° 0.1 mm 3 m/s 762 mmHg 74%
11:00 +17°C° 0.1 mm 4 m/s 762 mmHg 74%
12:00 +16°C° 0.1 mm 5 m/s 762 mmHg 74%
13:00 +16°C° 0.1 mm 5 m/s 762 mmHg 73%
14:00 +16°C° 0.1 mm 5 m/s 762 mmHg 71%
15:00 +16°C° 0.1 mm 6 m/s 762 mmHg 69%
16:00 +16°C° 0 mm 6 m/s 763 mmHg 70%
17:00 +15°C° 0 mm 6 m/s 763 mmHg 72%
18:00 +15°C° 0 mm 6 m/s 763 mmHg 73%
19:00 +13°C° 0 mm 5 m/s 763 mmHg 78%
20:00 +10°C° 0 mm 5 m/s 764 mmHg 83%
21:00 +10°C° 0 mm 4 m/s 764 mmHg 89%
22:00 +8°C° 0 mm 4 m/s 764 mmHg 89%
23:00 +9°C° 0 mm 3 m/s 764 mmHg 90%

20 Juillet, Lundi

Heure Température Précipitation Vent Pression Humidité
00:00 +9°C° 0 mm 3 m/s 764 mmHg 90%
01:00 +8°C° 0 mm 3 m/s 764 mmHg 90%
02:00 +8°C° 0 mm 3 m/s 765 mmHg 91%
03:00 +8°C° 0 mm 3 m/s 765 mmHg 91%
04:00 +9°C° 0 mm 3 m/s 765 mmHg 90%
05:00 +9°C° 0 mm 3 m/s 765 mmHg 89%
06:00 +10°C° 0 mm 3 m/s 765 mmHg 89%
07:00 +12°C° 0 mm 3 m/s 765 mmHg 83%
08:00 +13°C° 0 mm 3 m/s 765 mmHg 78%
09:00 +14°C° 0 mm 4 m/s 765 mmHg 72%
10:00 +15°C° 0 mm 4 m/s 765 mmHg 70%
11:00 +15°C° 0 mm 4 m/s 765 mmHg 67%
12:00 +17°C° 0 mm 4 m/s 765 mmHg 65%
13:00 +16°C° 0 mm 5 m/s 765 mmHg 65%
14:00 +16°C° 0 mm 5 m/s 765 mmHg 66%
15:00 +16°C° 0 mm 5 m/s 765 mmHg 66%
16:00 +15°C° 0 mm 5 m/s 765 mmHg 68%
17:00 +15°C° 0 mm 5 m/s 765 mmHg 70%
18:00 +14°C° 0 mm 5 m/s 765 mmHg 71%
19:00 +13°C° 0 mm 4 m/s 765 mmHg 78%
20:00 +11°C° 0 mm 4 m/s 766 mmHg 85%
21:00 +10°C° 0 mm 3 m/s 766 mmHg 91%
22:00 +9°C° 0 mm 3 m/s 766 mmHg 91%
23:00 +9°C° 0 mm 2 m/s 766 mmHg 91%

21 Juillet, Mardi

Heure Température Précipitation Vent Pression Humidité
00:00 +9°C° 0 mm 2 m/s 766 mmHg 91%
01:00 +9°C° 0 mm 2 m/s 766 mmHg 91%
02:00 +8°C° 0 mm 2 m/s 766 mmHg 90%
03:00 +9°C° 0 mm 1 m/s 766 mmHg 90%
04:00 +10°C° 0 mm 1 m/s 766 mmHg 89%
05:00 +11°C° 0 mm 1 m/s 766 mmHg 88%
06:00 +12°C° 0 mm 1 m/s 766 mmHg 87%
07:00 +13°C° 0 mm 2 m/s 766 mmHg 82%
08:00 +15°C° 0 mm 2 m/s 767 mmHg 77%
09:00 +16°C° 0 mm 2 m/s 767 mmHg 72%
10:00 +17°C° 0 mm 2 m/s 767 mmHg 71%
11:00 +17°C° 0 mm 3 m/s 767 mmHg 70%
12:00 +18°C° 0 mm 3 m/s 767 mmHg 69%
13:00 +18°C° 0 mm 4 m/s 767 mmHg 69%
14:00 +18°C° 0 mm 4 m/s 767 mmHg 69%
15:00 +18°C° 0 mm 4 m/s 766 mmHg 70%
16:00 +17°C° 0 mm 4 m/s 766 mmHg 72%
17:00 +17°C° 0 mm 4 m/s 766 mmHg 74%
18:00 +15°C° 0 mm 4 m/s 766 mmHg 76%
19:00 +13°C° 0 mm 4 m/s 766 mmHg 80%
20:00 +11°C° 0 mm 3 m/s 767 mmHg 84%
21:00 +10°C° 0 mm 3 m/s 767 mmHg 88%
22:00 +9°C° 0 mm 3 m/s 767 mmHg 88%
23:00 +9°C° 0 mm 3 m/s 767 mmHg 88%
Voir plus